TIANWANG 1B (TW-1B)
1 40927U 15051C   19097.52975463  .00012868  00000-0  21048-3 0  9994
2 40927  97.1481 143.3427 0006541 295.1338 170.9858 15.52626771198812
TIANWANG 1A (TW-1A)
1 40928U 15051D   19097.46193387  .00004072  00000-0  10290-3 0  9990
2 40928  97.1539 130.3549 0010248 346.1773 119.4448 15.40311223198056
LAPAN A2
1 40931U 15052B   19095.86189898  .00000734  00000-0  13157-4 0  9996
2 40931   5.9991 223.0838 0012941 191.8280 168.2209 14.76602431190332
LQSAT
1 40958U 15057A   19097.49416055  .00000003  00000-0  80971-5 0  9997
2 40958  97.9046 168.6176 0019606 111.0082 249.3229 14.73071675188170
CHUBUSAT 2
1 41338U 16012B   19096.83202855  .00000382  00000-0  23082-4 0  9999
2 41338  31.0025 247.7920 0013630 101.3868 258.8299 15.00117757171964
CHUBUSAT 3
1 41339U 16012C   19097.47540595  .00000373  00000-0  22315-4 0  9995
2 41339  31.0107 241.8932 0013257 114.1218 246.0824 15.00295849172053
OUFTI-1
1 41458U 16025C   19097.48377158  .00001650  00000-0  88668-4 0  9997
2 41458  98.1038 180.6721 0166055 239.3252 119.1512 15.05540910161713
E-STAR-2
1 41459U 16025D   19097.41698939  .00001500  00000-0  81507-4 0  9993
2 41459  98.1049 180.3074 0167257 240.7389 117.7016 15.05204123161677
AAUSAT 4
1 41460U 16025E   19097.48061998  .00002172  00000-0  11374-3 0  9991
2 41460  98.0992 181.4422 0157646 233.9991 124.6529 15.06972763161790
NUSAT 1
1 41557U 16033B   19097.04929160  .00001550  00000-0  61161-4 0  9992
2 41557  97.4180 184.9835 0013727 187.8771 172.2255 15.27005237159001
BEESAT 4
1 41619U 16040W   19096.45532197  .00001606  00000-0  71410-4 0  9993
2 41619  97.3752 160.0221 0009699 282.5286  77.4866 15.22905911142712
PRATHAM
1 41783U 16059A   19096.55449721 +.00000079 +00000-0 +24743-4 0  9996
2 41783 098.0757 157.7206 0032278 253.1981 106.5679 14.62981631134856
ALSAT 1N
1 41789U 16059G   19097.42548990  .00000086  00000-0  25434-4 0  9993
2 41789  98.0782 160.4127 0027019 239.5569 120.2969 14.64227332135073
NAYIF 1
1 42017U 17008BX  19096.88370242  .00001752  00000-0  72438-4 0  9992
2 42017  97.4097 164.7120 0007839  72.3070 287.9023 15.25292459118824
LILACSAT-1
1 42725U 98067ME  19087.71781172  .15670676  12603-4  45746-3 0  9992
2 42725  51.6064 319.7683 0009359 299.6698  60.5570 16.44549673105565
MAX VALIER SAT
1 42778U 17036P   19096.61445564 +.00001139 +00000-0 +53033-4 0  9997
2 42778 097.3627 155.8632 0014108 118.1007 242.1657 15.21858213099120
